| time (UTC) | temp C | wind direction | speed KPH | gust KPH | rain 1hr cm | rain 24hr cm | rain mn cm | humidity % | barometer mb |
| 20260831131513 | 20 | 281 | 0.0 | 0.0 | 0.00 | 0.00 | 0.00 | 93 | 1012.0 |
| 20260831130011 | 20 | 281 | 0.0 | 0.0 | 0.00 | 0.00 | 0.00 | 92 | 1012.0 |
| 20260831124509 | 20 | 281 | 0.0 | 0.0 | 0.00 | 0.00 | 0.00 | 92 | 1011.9 |
| 20260831123009 | 20 | 281 | 0.0 | 0.0 | 0.00 | 0.00 | 0.00 | 92 | 1011.9 |
| 20260831121507 | 20 | 281 | 0.0 | 0.0 | 0.00 | 0.00 | 0.00 | 92 | 1011.8 |
| 20260831120010 | 20 | 281 | 0.0 | 0.0 | 0.00 | 0.00 | 0.00 | 92 | 1011.8 |
| 20260831114504 | 20 | 281 | 0.0 | 0.0 | 0.00 | 0.00 | 0.00 | 91 | 1011.9 |
| 20260831113003 | 21 | 281 | 0.0 | 0.0 | 0.00 | 0.00 | 0.00 | 91 | 1011.9 |
| 20260831111503 | 21 | 281 | 0.0 | 0.0 | 0.00 | 0.00 | 0.00 | 91 | 1012.0 |
| 20260831110003 | 21 | 281 | 0.0 | 0.0 | 0.00 | 0.00 | 0.00 | 91 | 1012.0 |
| 20260831104509 | 21 | 281 | 0.0 | 0.0 | 0.00 | 0.00 | 0.00 | 91 | 1012.0 |
| 20260831103006 | 21 | 281 | 0.0 | 6.4 | 0.00 | 0.00 | 0.00 | 92 | 1012.0 |
| 20260831101502 | 21 | 281 | 1.6 | 8.0 | 0.00 | 0.00 | 0.00 | 92 | 1012.1 |
| 20260831100119 | 21 | 281 | 0.0 | 4.8 | 0.00 | 0.00 | 0.00 | 93 | 1012.0 |
| 20260831094600 | 20 | 281 | 0.0 | 0.0 | 0.00 | 0.00 | 0.00 | 91 | 1012.0 |
| 20260831093112 | 21 | 281 | 0.0 | 0.0 | 0.00 | 0.00 | 0.00 | 91 | 1012.1 |
| 20260831091558 | 21 | 281 | 0.0 | 0.0 | 0.00 | 0.00 | 0.00 | 91 | 1011.9 |
| 20260831090116 | 21 | 281 | 0.0 | 0.0 | 0.00 | 0.00 | 0.00 | 91 | 1011.9 |
| 20260831084556 | 21 | 281 | 0.0 | 0.0 | 0.00 | 0.00 | 0.00 | 91 | 1011.9 |
| 20260831083107 | 21 | 281 | 0.0 | 0.0 | 0.00 | 0.00 | 0.00 | 90 | 1012.0 |
| 20260831081600 | 21 | 281 | 0.0 | 0.0 | 0.00 | 0.00 | 0.00 | 90 | 1012.0 |
| 20260831080124 | 21 | 281 | 0.0 | 0.0 | 0.00 | 0.00 | 0.00 | 90 | 1012.1 |
| 20260831074551 | 21 | 281 | 0.0 | 0.0 | 0.00 | 0.00 | 0.00 | 89 | 1012.2 |
| 20260831073050 | 21 | 281 | 0.0 | 0.0 | 0.00 | 0.00 | 0.00 | 89 | 1012.1 |
| 20260831071548 | 21 | 281 | 0.0 | 0.0 | 0.00 | 0.00 | 0.00 | 90 | 1012.0 |
| 20260831070046 | 22 | 281 | 0.0 | 0.0 | 0.00 | 0.00 | 0.00 | 89 | 1011.9 |
| 20260831064545 | 22 | 281 | 0.0 | 0.0 | 0.00 | 0.00 | 0.00 | 89 | 1011.9 |
| 20260831063100 | 22 | 281 | 0.0 | 0.0 | 0.00 | 0.00 | 0.00 | 89 | 1011.7 |
| 20260831061544 | 22 | 281 | 0.0 | 6.4 | 0.00 | 0.00 | 0.00 | 89 | 1011.7 |
| 20260831060045 | 22 | 284 | 0.0 | 0.0 | 0.00 | 0.00 | 0.00 | 88 | 1011.6 |
| 20260831054544 | 22 | 284 | 3.2 | 8.0 | 0.00 | 0.00 | 0.00 | 88 | 1011.7 |
| 20260831053121 | 22 | 283 | 1.6 | 11.3 | 0.00 | 0.00 | 0.00 | 87 | 1011.8 |
| 20260831051542 | 22 | 290 | 1.6 | 8.0 | 0.00 | 0.00 | 0.00 | 85 | 1011.7 |
| 20260831050041 | 22 | 285 | 0.0 | 8.0 | 0.00 | 0.00 | 0.00 | 85 | 1011.8 |
| 20260831044635 | 22 | 280 | 0.0 | 0.0 | 0.00 | 0.00 | 0.00 | 83 | 1011.7 |
| 20260831043041 | 22 | 280 | 0.0 | 0.0 | 0.00 | 0.00 | 0.00 | 83 | 1011.7 |
| 20260831041540 | 23 | 280 | 0.0 | 0.0 | 0.00 | 0.00 | 0.00 | 83 | 1011.5 |
| 20260831040039 | 23 | 280 | 0.0 | 6.4 | 0.00 | 0.00 | 0.00 | 83 | 1011.2 |
| 20260831034539 | 23 | 280 | 3.2 | 11.3 | 0.00 | 0.00 | 0.00 | 83 | 1011.0 |
| 20260831033053 | 23 | 268 | 1.6 | 11.3 | 0.00 | 0.00 | 0.00 | 82 | 1010.8 |
| 20260831031542 | 23 | 277 | 8.0 | 17.7 | 0.00 | 0.00 | 0.00 | 84 | 1010.6 |
| 20260831030038 | 23 | 271 | 9.7 | 19.3 | 0.00 | 0.00 | 0.00 | 84 | 1010.3 |
| 20260831024537 | 23 | 277 | 14.5 | 22.5 | 0.00 | 0.00 | 0.00 | 85 | 1010.3 |
| 20260831023036 | 23 | 257 | 11.3 | 27.4 | 0.00 | 0.00 | 0.00 | 86 | 1010.2 |
| 20260831021535 | 23 | 292 | 14.5 | 25.7 | 0.00 | 0.00 | 0.00 | 86 | 1010.2 |
| 20260831020033 | 23 | 282 | 16.1 | 24.1 | 0.00 | 0.00 | 0.00 | 85 | 1010.3 |
| 20260831014531 | 24 | 270 | 14.5 | 25.7 | 0.00 | 0.00 | 0.00 | 85 | 1010.3 |
| 20260831013029 | 25 | 243 | 12.9 | 25.7 | 0.00 | 0.00 | 0.00 | 84 | 1010.3 |
| 20260831011528 | 25 | 265 | 12.9 | 24.1 | 0.00 | 0.00 | 0.00 | 81 | 1010.3 |
| 20260831010039 | 26 | 217 | 6.4 | 16.1 | 0.00 | 0.00 | 0.00 | 78 | 1010.3 |
| 20260831004525 | 26 | 232 | 9.7 | 20.9 | 0.00 | 0.00 | 0.00 | 77 | 1010.3 |
| 20260831003026 | 27 | 240 | 9.7 | 22.5 | 0.00 | 0.00 | 0.00 | 78 | 1010.4 |
| 20260831001525 | 27 | 222 | 9.7 | 17.7 | 0.00 | 0.00 | 0.00 | 78 | 1010.4 |
| 20260831000024 | 27 | 232 | 8.0 | 19.3 | 0.00 | 0.00 | 0.00 | 78 | 1010.3 |
| 20260830234525 | 27 | 215 | 9.7 | 22.5 | 0.00 | 0.00 | 0.00 | 77 | 1010.3 |
| 20260830233028 | 27 | 275 | 9.7 | 22.5 | 0.00 | 0.00 | 0.00 | 77 | 1010.3 |
| 20260830231521 | 27 | 223 | 9.7 | 19.3 | 0.00 | 0.00 | 0.00 | 78 | 1010.4 |
| 20260830230018 | 28 | 223 | 8.0 | 19.3 | 0.00 | 0.00 | 0.00 | 77 | 1010.5 |
| 20260830224519 | 28 | 205 | 11.3 | 17.7 | 0.00 | 0.00 | 0.00 | 77 | 1010.6 |
| 20260830223018 | 28 | 198 | 6.4 | 16.1 | 0.00 | 0.00 | 0.00 | 76 | 1010.6 |
| 20260830221516 | 28 | 187 | 4.8 | 14.5 | 0.00 | 0.00 | 0.00 | 75 | 1010.9 |
| 20260830220016 | 28 | 215 | 6.4 | 16.1 | 0.00 | 0.00 | 0.00 | 75 | 1011.1 |
| 20260830214518 | 28 | 218 | 4.8 | 16.1 | 0.00 | 0.00 | 0.00 | 75 | 1011.3 |
| 20260830213013 | 28 | 236 | 8.0 | 14.5 | 0.00 | 0.00 | 0.00 | 76 | 1011.5 |
| 20260830211513 | 28 | 229 | 11.3 | 17.7 | 0.00 | 0.00 | 0.00 | 76 | 1011.7 |
| 20260830210011 | 28 | 223 | 6.4 | 16.1 | 0.00 | 0.00 | 0.00 | 76 | 1011.8 |
| 20260830204519 | 28 | 196 | 8.0 | 17.7 | 0.00 | 0.00 | 0.00 | 76 | 1012.0 |
| 20260830203014 | 28 | 239 | 8.0 | 17.7 | 0.00 | 0.00 | 0.00 | 77 | 1011.9 |
| 20260830201511 | 28 | 235 | 8.0 | 19.3 | 0.00 | 0.00 | 0.00 | 77 | 1012.0 |
| 20260830200009 | 28 | 233 | 8.0 | 19.3 | 0.00 | 0.00 | 0.00 | 77 | 1011.9 |
| 20260830194508 | 28 | 229 | 8.0 | 17.7 | 0.00 | 0.00 | 0.00 | 76 | 1012.0 |
| 20260830193017 | 28 | 212 | 6.4 | 17.7 | 0.00 | 0.00 | 0.00 | 77 | 1012.1 |
| 20260830191522 | 28 | 215 | 8.0 | 16.1 | 0.00 | 0.00 | 0.00 | 77 | 1012.1 |
| 20260830190006 | 28 | 229 | 6.4 | 14.5 | 0.00 | 0.00 | 0.00 | 77 | 1012.2 |
| 20260830184506 | 28 | 259 | 8.0 | 16.1 | 0.00 | 0.00 | 0.00 | 78 | 1012.3 |
| 20260830183005 | 28 | 232 | 4.8 | 14.5 | 0.00 | 0.00 | 0.00 | 77 | 1012.3 |
| 20260830181503 | 28 | 244 | 6.4 | 14.5 | 0.00 | 0.00 | 0.00 | 77 | 1012.3 |
| 20260830180007 | 28 | 221 | 4.8 | 16.1 | 0.00 | 0.00 | 0.00 | 77 | 1012.2 |
| 20260830174507 | 28 | 258 | 8.0 | 14.5 | 0.00 | 0.00 | 0.00 | 76 | 1012.2 |
| 20260830173001 | 28 | 208 | 8.0 | 12.9 | 0.00 | 0.00 | 0.00 | 76 | 1012.1 |
| 20260830171601 | 28 | 194 | 6.4 | 16.1 | 0.00 | 0.00 | 0.00 | 77 | 1012.1 |
| 20260830170056 | 28 | 234 | 4.8 | 12.9 | 0.00 | 0.00 | 0.00 | 76 | 1012.1 |
| 20260830164553 | 27 | 227 | 6.4 | 11.3 | 0.00 | 0.00 | 0.00 | 78 | 1011.9 |
| 20260830163051 | 27 | 178 | 0.0 | 8.0 | 0.00 | 0.00 | 0.00 | 79 | 1011.9 |
| 20260830161602 | 26 | 225 | 3.2 | 8.0 | 0.00 | 0.00 | 0.00 | 80 | 1011.9 |
| 20260830160046 | 26 | 156 | 0.0 | 8.0 | 0.00 | 0.00 | 0.00 | 80 | 1012.0 |
| 20260830154545 | 26 | 107 | 0.0 | 0.0 | 0.00 | 0.00 | 0.00 | 81 | 1012.0 |
| 20260830153042 | 26 | 103 | 0.0 | 6.4 | 0.00 | 0.00 | 0.00 | 82 | 1012.0 |
| 20260830151539 | 25 | 313 | 0.0 | 4.8 | 0.00 | 0.00 | 0.00 | 85 | 1012.0 |
| 20260830150104 | 23 | 313 | 0.0 | 0.0 | 0.00 | 0.00 | 0.00 | 88 | 1012.0 |
| 20260830144533 | 22 | 279 | 0.0 | 0.0 | 0.00 | 0.00 | 0.00 | 93 | 1011.9 |
| 20260830143037 | 21 | 279 | 0.0 | 0.0 | 0.00 | 0.00 | 0.00 | 94 | 1011.9 |
| 20260830141529 | 21 | 279 | 0.0 | 0.0 | 0.00 | 0.00 | 0.00 | 93 | 1011.7 |
| 20260830140027 | 20 | 279 | 0.0 | 0.0 | 0.00 | 0.00 | 0.00 | 93 | 1011.7 |
| 20260830134537 | 20 | 279 | 0.0 | 0.0 | 0.00 | 0.00 | 0.00 | 93 | 1011.5 |
| 20260830133027 | 20 | 279 | 0.0 | 0.0 | 0.00 | 0.00 | 0.00 | 92 | 1011.4 |